Showing default

IRIDIUM 170, 43930

Orbit data source: Space-Track

IRIDIUM 170, 43930 is a payload satellite owned by Iridium (US) in LEO that was launched on Fri, 11 Jan 2019 UTC via an FALCON 9 launch vehicle from the Air Force Western Test Range (AFWTR). Payloads include a variety of satellites, spacecraft, and rockets equipped with specific instruments for various scientific and technological missions. These include communications satellites like Starlink; space stations such as the ISS; scientific satellites like the Hubble; Earth observation satellites from companies like Planet Labs, Umbra, and HawkEye 360; GPS; miniature CubeSats for education and research; and military/defense satellites.

Loading next visibility...
IRIDIUM 170 details
Identifier
43930, 2019-002J
Orbit
LEO
Last TLE update11 hours ago
Origin
Flag of USIridium (US)
ManufacturerNGIS SSG Gilbert
MissionOperational Commercial Communications
Bus & MotorELITEBUS, Unknown motor
Mass860 kg wet, 700 kg dry
Launch date (UTC)
2019-01-11 (6 years ago)
Launch vehicle
FALCON 9
Launch site
Air Force Western Test Range (AFWTR)
Object type
Payload
Rocket body
Debris
Shape & HBRTrap Box + 2 Pan, 9.4 m
Radar Cross Section14.423 m², Large (>1 m²)

Expand to show TLE details & history

TLE from 11 hours ago
0 IRIDIUM 170
1 43930U 19002J   24361.13279947  .00002344  00000-0  36774-3 0  9992
2 43930  86.6108 218.4256 0002413  85.7158 274.4335 14.72265600320097
Epoch: 2024-12-26T03:11Z
Definitive object data (Epoch: 2024-12-26T03:11:13.874Z)
Latitude0.00001°
Longitude75.50122°
Altitude656.821 km
Speed7.529 km/s
True Right ascension14h 33m 42s
True Declination0° 00' 00"
Sunlit
Object was in daylight at TLE epoch
Visualization TLE readout
Latitude-21.65153°
Longitude73.96426°
Altitude662.616 km
Speed7.525 km/s
Apparent Right ascension16h 02m 29s
Apparent Declination-74° 21' 20"
Sunlit
Object is in daylight
Visualization observer readout
Local Sidereal Time13:52:19
Azimuth170.686° S
Elevation-26.33°
Doppler factor1
Orbital elements
Apogee altitude652.447 km
Perigee altitude649.055 km
Semi-major axis7,028.888 km
Eccentricity0.0002413
Inclination86.6108°
RAAN218.4256°
Arg. of periapsis85.7158°
True anomaly274.40593°
Mean anomaly274.4335°
Eccentric anomaly274.41972°
Mean motion3.6831 °/min
BSTAR0.00036774
Orbital period97.74 mins
Loading maneuver chart data...
Loading historical data...
Loading historical data...
Loading historical data...
Loading historical data...
Loading historical data...
Loading historical data...
Loading historical data...

IRIDIUM 170 Visibility forecast

Observer location: undefined°, undefined

Span
Click to sort rows by Start time (UTC) header in descending order
Start Az.
Max El. time (UTC)
Max El. Az.
Max El.
End time (UTC)
End Az.
7 mins2024-12-26 14:43:28.386Z149.762° SSE2024-12-26 14:47:28.386Z78.018° E30.433°2024-12-26 14:50:28.386Z25.258° NE
5 mins2024-12-26 16:23:28.386Z250.469° W2024-12-26 16:25:28.386Z282.494° WNW17.921°2024-12-26 16:28:28.386Z325.541° NNW
7 mins2024-12-27 02:36:28.386Z12.273° NNE2024-12-27 02:39:28.386Z89.404° E40.121°2024-12-27 02:43:28.386Z163.981° S
|